TimeMDT,TemperatureF,Dew PointF,Humidity,Sea Level PressureIn,VisibilityMPH,Wind Direction,Wind SpeedMPH,Gust SpeedMPH,PrecipitationIn,Events,Conditions,WindDirDegrees,DateUTC
12:53 AM,68.0,36.0,31,29.83,10.0,SE,4.6,-,N/A,,Smoke,140,2013-08-12 06:53:00
1:53 AM,69.1,39.0,33,29.83,10.0,SSW,4.6,-,N/A,,Smoke,210,2013-08-12 07:53:00
2:53 AM,68.0,45.0,43,29.84,10.0,Calm,Calm,-,N/A,,Smoke,0,2013-08-12 08:53:00
3:53 AM,64.0,46.0,52,29.84,10.0,SW,4.6,-,N/A,,Smoke,220,2013-08-12 09:53:00
4:53 AM,64.9,48.0,54,29.84,10.0,SSE,3.5,-,N/A,,Smoke,150,2013-08-12 10:53:00
5:53 AM,64.9,48.9,56,29.85,10.0,SW,5.8,-,N/A,,Smoke,220,2013-08-12 11:53:00
6:53 AM,64.0,48.9,58,29.86,10.0,WNW,4.6,-,N/A,,Smoke,300,2013-08-12 12:53:00
7:53 AM,66.0,48.9,54,29.89,10.0,South,4.6,-,N/A,,Smoke,170,2013-08-12 13:53:00
8:53 AM,70.0,50.0,49,29.90,10.0,WSW,3.5,-,N/A,,Smoke,240,2013-08-12 14:53:00
9:53 AM,70.0,51.1,51,29.91,10.0,Calm,Calm,-,N/A,,Smoke,0,2013-08-12 15:53:00
10:53 AM,73.9,51.1,45,29.90,10.0,NNW,4.6,-,N/A,,Smoke,340,2013-08-12 16:53:00
11:53 AM,78.1,52.0,40,29.91,9.0,West,4.6,-,N/A,,Smoke,280,2013-08-12 17:53:00
12:53 PM,81.0,48.0,31,29.91,5.0,WSW,3.5,-,N/A,,Haze,250,2013-08-12 18:53:00
1:53 PM,84.9,46.0,26,29.88,6.0,Calm,Calm,-,N/A,,Haze,0,2013-08-12 19:53:00
2:53 PM,87.1,46.0,24,29.86,8.0,WNW,9.2,-,N/A,,Smoke,300,2013-08-12 20:53:00
3:53 PM,84.9,46.0,26,29.86,7.0,West,4.6,-,N/A,,Smoke,280,2013-08-12 21:53:00
4:53 PM,86.0,46.9,26,29.83,7.0,NNW,8.1,-,N/A,,Smoke,330,2013-08-12 22:53:00
5:53 PM,84.9,50.0,30,29.83,7.0,North,9.2,-,N/A,,Smoke,350,2013-08-12 23:53:00
6:53 PM,84.9,46.9,27,29.80,8.0,NNE,8.1,-,N/A,,Smoke,20,2013-08-13 00:53:00
7:53 PM,84.0,43.0,24,29.80,9.0,Calm,Calm,-,N/A,,Smoke,0,2013-08-13 01:53:00
8:53 PM,82.0,44.1,26,29.83,10.0,NNW,12.7,-,N/A,,Smoke,340,2013-08-13 02:53:00
9:53 PM,80.1,42.1,26,29.86,10.0,WNW,9.2,-,N/A,,Smoke,290,2013-08-13 03:53:00
10:53 PM,79.0,39.9,25,29.85,10.0,NNW,11.5,-,N/A,,Smoke,340,2013-08-13 04:53:00
11:53 PM,77.0,39.0,25,29.85,10.0,NW,9.2,-,N/A,,Smoke,310,2013-08-13 05:53:00